EHI
0 0 0 0 0 0 0 0 0 0 0 0 0 0 0 0 0 0 0 0 2 8 13 15 18 23 24 22 21 21 19 18 17 13 9 7 6 4 3 1 0 0 0 0 0 0 0 0 0
0 0 0 0 0 0 0 0 0 0 0 0 0 0 0 0 0 0 0 1 4 11 14 15 18 23 24 22 20 20 19 18 17 14 10 7 6 4 2 1 0 0 0 0 0 0 0 0 0
0 0 0 0 0 0 0 0 0 0 0 0 0 0 0 0 0 0 0 3 9 14 16 16 18 23 25 22 18 17 16 15 15 14 10 7 5 3 1 1 0 0 0 0 0 0 0 0 0
0 0 0 0 0 0 0 0 0 0 0 0 0 0 0 0 0 0 2 8 14 17 17 18 20 23 24 22 19 15 13 11 10 10 8 6 3 2 1 0 0 0 0 0 0 0 0 0 0
0 0 0 0 0 0 0 0 0 0 0 1 1 1 1 0 0 2 6 12 18 19 18 19 21 23 24 22 19 15 12 9 8 7 6 4 3 3 2 1 0 0 0 0 0 0 0 0 0
0 0 0 0 0 0 0 0 0 0 0 1 3 4 3 2 2 5 9 17 22 21 18 18 20 21 22 20 17 15 13 10 9 9 7 5 3 3 3 2 1 0 0 0 0 0 0 0 0
0 0 0 0 0 0 0 0 0 0 0 1 3 5 4 4 5 8 14 22 25 22 18 17 17 18 18 17 15 14 13 10 9 10 8 5 4 3 3 3 2 0 0 0 0 0 0 0 0
0 0 0 0 0 0 0 0 0 0 0 1 2 4 5 6 8 13 20 26 26 20 16 15 16 16 15 13 12 12 10 8 8 8 6 4 3 3 3 2 1 0 0 0 0 0 0 0 0
0 0 0 0 0 0 0 0 0 0 0 1 2 4 6 8 12 17 21 23 21 16 14 14 15 14 12 11 10 8 6 5 5 5 3 1 1 2 1 1 0 0 0 0 0 0 0 0 0
0 0 0 0 0 0 0 0 0 0 0 1 3 5 7 11 16 18 17 15 13 12 12 13 13 12 10 11 10 7 5 3 3 3 2 1 1 1 1 0 0 0 0 0 0 0 0 0 0
0 0 0 0 0 0 0 0 0 0 0 2 5 6 9 14 16 15 12 11 10 11 12 12 11 9 9 11 11 9 6 5 4 3 1 0 0 0 0 0 0 0 0 0 0 0 0 0 0
0 0 0 0 0 0 0 0 0 0 1 3 5 7 10 13 14 12 11 11 11 12 13 13 10 8 7 8 9 8 7 6 4 2 1 0 0 0 0 0 0 0 0 0 0 0 0 0 0
0 0 0 0 0 0 0 0 0 1 2 4 6 7 9 11 12 12 11 11 11 12 13 13 11 8 6 6 6 6 6 5 4 2 1 0 0 0 0 0 0 0 0 0 0 0 0 0 0
0 0 0 0 0 0 0 0 1 2 3 5 6 6 7 8 9 10 11 10 10 11 12 13 11 8 6 5 5 4 4 4 3 2 1 0 0 0 0 0 0 0 0 0 0 0 0 0 0
0 0 0 0 0 0 0 0 1 3 3 4 5 5 5 6 7 8 9 10 8 9 11 12 11 9 6 5 5 4 3 3 3 2 1 0 0 0 0 0 0 0 0 0 0 0 0 0 0
0 0 0 0 0 0 0 0 1 2 2 1 2 3 4 4 5 7 9 9 9 9 10 11 11 10 7 5 5 4 2 2 3 2 1 0 0 0 0 0 0 0 0 0 0 0 0 0 0
0 0 0 0 0 0 0 0 1 1 1 0 1 2 3 4 4 6 7 9 9 9 9 11 11 10 8 5 4 4 2 1 3 2 1 0 0 0 0 0 0 0 0 0 0 0 0 0 0
0 0 0 0 0 0 0 0 0 0 0 0 1 2 3 3 3 4 6 7 8 9 9 10 11 11 9 6 4 4 1 1 2 2 1 0 0 0 0 0 0 0 0 0 0 0 0 0 0
0 0 0 0 0 0 0 0 0 0 0 0 1 2 3 3 3 3 5 7 7 7 7 8 9 9 9 7 4 3 2 1 1 1 0 0 0 0 0 0 0 0 0 0 0 0 0 0 0
0 0 0 0 0 0 0 0 0 0 0 0 0 1 1 2 2 3 5 6 6 6 6 6 6 7 8 7 4 2 2 1 0 0 0 0 0 0 0 0 0 0 0 0 0 0 0 0 0
0 0 0 0 0 0 0 0 0 0 0 0 0 0 0 1 1 3 4 5 6 6 6 6 4 4 5 5 3 2 1 1 0 0 0 0 0 0 0 0 0 0 0 0 0 0 0 0 0
0 0 0 0 0 0 0 0 0 0 0 0 0 0 0 0 1 3 3 4 5 6 6 5 3 3 3 4 3 1 0 0 0 0 0 0 0 0 0 0 0 0 0 0 0 0 0 0 0
0 0 0 0 0 0 0 0 0 0 0 0 0 0 0 0 1 2 3 3 4 4 3 3 1 1 2 2 1 0 0 0 0 0 0 0 0 0 0 0 0 0 0 0 0 0 0 0 0
0 0 0 0 0 0 0 0 0 0 0 0 0 0 0 0 1 1 1 2 2 2 1 1 1 1 1 1 0 0 0 0 0 0 0 0 0 0 0 0 0 0 0 0 0 0 0 0 0
0 0 0 0 0 0 0 0 0 0 0 0 0 0 0 0 0 0 0 1 1 1 0 0 1 2 2 1 0 0 0 0 0 0 0 0 0 0 0 0 0 0 0 0 0 0 0 0 0
0 0 0 0 0 0 0 0 0 0 0 0 0 0 0 0 0 0 0 0 0 0 0 0 1 2 2 1 0 0 0 0 0 0 0 0 0 0 0 0 0 0 0 0 0 0 0 0 0
0 0 0 0 0 0 0 0 0 0 0 0 0 0 0 0 0 0 0 0 0 0 0 0 0 1 1 1 0 0 0 0 0 0 0 0 0 0 0 0 0 0 0 0 0 0 0 0 0
0 0 0 0 0 0 0 0 0 0 0 0 0 0 0 0 0 0 0 0 0 0 0 0 0 0 0 0 0 0 0 0 0 0 0 0 0 0 0 0 0 0 0 0 0 0 0 0 0
0 0 0 0 0 0 0 0 0 0 0 0 0 0 0 0 0 0 0 0 0 0 0 0 0 0 0 0 0 0 0 0 0 0 0 0 0 0 0 0 0 0 0 0 0 0 0 0 0
0 0 0 0 0 0 0 0 0 0 0 0 0 0 0 0 0 0 0 0 0 0 0 0 0 0 0 0 0 0 0 0 0 0 0 0 0 0 0 0 0 0 0 0 0 0 0 0 0
Wind_Speed
9 5 3 4 7 4 3 4 2 1 1 1 0 3 5 4 3 2 2 2 4 5 5 6 6 8 10 10 11 11 11 11 11 12 12 12 12 12 12 12 13 14 14 14 14 15 16 16 15
3 3 5 6 5 2 5 3 3 3 2 1 2 2 3 1 2 2 2 1 4 5 4 5 6 8 10 10 11 11 10 11 11 11 11 11 11 11 11 12 13 13 14 14 14 14 15 15 15
3 4 5 5 3 7 5 2 4 3 1 2 2 2 2 1 2 1 2 1 4 5 4 5 7 8 9 10 10 10 10 10 10 11 11 11 11 11 11 11 12 13 13 13 14 14 14 14 14
3 5 5 4 5 6 3 1 2 1 2 3 2 2 2 3 2 2 1 3 5 4 4 5 6 7 8 9 9 10 9 10 10 10 10 10 10 11 11 11 12 12 12 13 13 13 13 13 13
4 5 4 1 6 4 1 2 0 1 0 2 2 2 1 3 4 3 3 4 5 4 3 5 6 7 7 8 8 8 9 10 10 9 10 10 10 11 11 11 11 11 12 12 12 13 13 13 13
4 4 3 6 8 3 2 2 1 1 0 1 2 1 0 3 5 4 3 3 3 4 3 4 6 7 6 7 7 7 8 9 9 9 9 9 10 10 10 10 10 11 11 11 12 12 13 13 13
4 3 3 4 4 3 1 1 1 0 0 1 1 2 1 3 3 3 3 4 4 4 3 3 3 4 5 5 5 6 6 7 8 8 8 8 8 9 10 10 10 10 11 11 11 11 13 13 12
3 3 2 2 3 4 1 1 0 1 1 1 2 2 1 2 1 3 3 4 4 4 4 3 3 3 3 3 5 5 5 6 7 8 8 7 7 7 8 8 8 9 10 11 11 11 12 12 11
3 2 4 4 3 2 2 1 2 1 3 2 2 1 2 0 3 4 4 3 3 3 3 3 3 3 2 2 4 4 5 5 6 6 7 6 4 4 4 5 7 7 9 10 11 11 11 10 10
3 3 6 1 1 0 2 2 2 2 2 2 3 5 4 3 4 4 3 2 2 1 2 2 2 2 2 2 3 2 2 2 3 4 4 3 3 3 3 5 6 7 7 8 9 10 10 7 4
2 3 2 2 1 0 1 2 3 2 1 1 1 2 2 2 3 3 2 2 2 2 2 1 1 2 2 2 2 1 1 2 2 4 4 3 3 3 2 2 3 4 5 4 5 5 4 4 3
1 2 1 3 3 2 2 2 2 1 2 2 1 1 2 2 2 2 1 1 0 1 0 1 1 1 2 2 2 2 1 1 2 2 4 4 2 2 2 2 2 2 2 3 3 3 4 4 4
1 1 2 2 3 2 2 1 1 3 4 2 1 2 2 1 0 0 0 0 1 1 2 1 1 1 2 2 1 2 2 2 2 2 3 3 3 3 2 2 2 2 2 3 3 3 4 4 4
1 1 2 4 3 2 1 3 2 5 3 2 2 2 1 1 2 2 3 2 2 2 2 2 1 0 1 2 2 1 1 2 2 2 2 3 3 3 3 2 2 2 2 2 3 3 3 3 3
1 1 3 3 2 2 1 3 4 4 2 2 2 2 2 2 3 2 1 2 2 1 2 2 1 2 0 1 2 2 1 2 2 2 2 2 3 3 3 3 2 2 2 3 3 4 3 3 4
2 1 2 3 2 2 1 5 4 2 2 2 2 2 2 3 2 2 2 2 2 2 2 2 1 2 2 1 1 1 2 2 2 2 2 3 3 3 3 3 2 2 2 3 4 3 3 3 3
3 1 3 4 1 1 2 4 3 2 2 2 3 3 3 3 4 4 3 2 2 1 1 2 1 1 2 1 0 1 1 2 1 2 2 2 3 3 3 3 2 3 3 3 4 3 3 4 4
2 2 3 4 2 1 2 4 4 2 1 2 3 3 3 4 4 4 4 3 2 2 1 1 1 1 2 1 0 1 1 1 1 2 2 2 3 4 3 2 3 3 3 3 3 4 3 3 4
2 2 4 5 2 0 3 5 5 3 2 2 3 4 4 5 4 4 4 3 3 2 3 2 1 1 1 0 0 1 1 1 1 2 2 2 3 4 4 3 3 3 3 4 5 4 4 3 3
1 3 4 5 3 1 3 6 4 3 1 1 2 4 5 6 6 6 5 4 3 3 3 3 2 1 1 1 1 1 1 2 2 1 2 3 3 4 4 4 4 3 3 5 5 4 3 2 2
2 3 4 5 5 2 2 4 2 2 1 2 3 3 4 5 6 6 6 6 4 4 3 2 2 2 2 1 0 1 1 0 0 1 1 2 3 4 4 5 4 4 4 5 6 5 5 4 2
4 4 4 4 3 3 1 4 4 2 2 4 4 5 5 6 6 5 6 6 5 5 4 3 3 2 2 0 1 1 1 1 2 2 2 2 3 3 4 5 5 4 3 4 5 5 3 4 4
4 6 4 3 2 2 1 2 6 1 3 5 5 5 5 5 5 5 6 6 6 5 3 3 3 3 2 1 1 2 1 1 1 1 2 2 2 3 4 4 5 5 4 5 5 5 4 4 4
4 4 2 1 2 2 3 3 5 2 3 5 5 5 6 6 6 6 6 6 6 5 4 3 3 3 3 2 2 2 2 2 1 2 2 2 2 2 3 4 4 4 4 5 5 5 5 4 4
5 4 4 5 2 4 1 2 5 3 2 3 4 5 6 6 6 7 8 8 8 7 6 5 4 4 3 2 2 2 3 3 3 3 3 2 2 3 4 3 4 4 4 5 5 5 5 5 5
2 2 3 2 3 4 2 4 4 2 3 3 3 4 5 6 6 6 6 6 6 7 6 5 5 5 4 3 3 2 3 2 2 3 2 3 3 3 3 4 4 4 4 4 4 4 4 4 4
1 1 1 2 1 3 4 5 6 3 5 5 5 5 6 6 6 6 7 6 6 6 6 5 5 5 5 4 3 3 3 2 3 3 3 2 3 3 3 4 4 4 4 4 5 4 5 4 4
2 2 2 2 0 4 5 4 4 5 6 6 6 6 6 6 7 7 7 6 6 5 5 4 4 5 5 4 3 3 3 3 3 3 4 3 3 3 3 3 4 4 4 4 5 4 4 5 4
2 2 2 1 1 2 4 6 3 4 4 4 5 6 6 7 7 7 7 7 6 6 4 4 4 5 5 5 4 3 3 3 2 3 4 3 3 4 3 3 4 4 4 4 5 5 5 5 4
2 2 2 1 2 2 2 8 3 3 3 4 5 6 6 6 6 6 7 7 6 6 5 5 4 4 5 4 4 3 3 3 2 3 4 3 4 4 3 3 3 4 4 5 5 5 5 6 6
Wind_Direction
342 350 36 52 58 55 229 240 231 276 255 260 199 133 139 144 153 192 339 96 109 138 154 154 145 136 131 125 119 117 119 119 119 120 119 118 117 116 116 115 113 110 106 102 100 100 98 96 95
336 3 47 59 98 192 251 234 227 231 225 334 47 75 83 60 25 44 19 18 119 133 141 140 131 136 133 127 123 119 119 122 123 121 120 120 120 119 115 113 113 110 107 105 103 101 100 98 97
354 46 77 83 138 200 221 234 224 263 270 48 46 45 87 34 17 360 329 101 116 126 124 130 126 130 131 129 125 122 121 121 124 123 122 122 120 119 116 113 112 111 110 108 106 104 104 102 100
52 49 59 89 213 223 208 253 237 297 6 30 74 58 54 50 355 331 18 114 112 112 113 123 120 126 127 125 127 125 122 122 122 124 124 124 123 118 114 112 111 111 112 111 109 108 106 105 105
56 81 86 217 237 238 234 290 202 115 58 11 84 98 6 12 20 53 83 108 115 108 110 127 116 115 119 124 121 124 126 123 122 122 125 124 124 121 116 112 113 113 113 116 115 113 111 108 107
59 78 132 220 234 251 276 308 65 73 25 20 83 98 336 28 40 60 80 98 104 106 110 121 119 111 110 113 119 117 125 125 123 122 121 125 126 122 120 117 114 117 116 117 117 116 116 111 109
106 117 188 214 238 253 273 326 125 143 53 328 120 115 301 11 26 71 84 84 79 85 93 96 106 112 112 106 105 111 114 121 121 118 113 115 120 121 122 121 117 119 120 117 115 116 117 113 109
116 114 180 219 224 249 295 343 18 127 201 4 78 115 264 308 23 88 94 100 86 75 76 81 82 89 101 116 108 102 106 109 111 107 99 97 107 116 118 119 118 119 121 118 116 115 114 110 108
82 106 214 216 202 248 350 27 355 28 87 46 53 35 302 47 102 93 83 66 75 72 68 78 83 80 77 102 104 98 101 98 105 104 95 93 89 94 104 110 114 116 119 118 116 116 110 103 100
85 190 225 229 189 96 8 16 351 45 46 11 360 7 25 92 112 113 116 113 103 96 72 68 78 96 85 100 102 101 100 98 100 107 103 94 88 83 92 102 105 106 105 109 110 112 108 99 90
97 201 244 319 329 4 355 353 356 98 35 279 289 347 49 90 97 112 128 158 176 185 143 72 88 117 110 99 113 102 94 98 97 110 108 103 91 88 83 90 90 92 95 94 97 96 99 103 103
85 330 322 312 333 335 322 327 10 53 240 294 221 156 123 129 153 167 164 180 230 43 33 93 95 111 116 110 124 123 114 117 116 127 124 120 114 107 106 103 103 99 101 104 95 101 103 106 107
243 299 345 343 5 359 21 327 292 305 309 323 39 107 112 102 138 302 111 88 36 51 360 0 54 133 127 124 126 127 137 139 138 141 138 133 135 136 128 122 116 111 111 115 113 108 112 112 109
252 291 308 317 300 299 355 307 312 294 340 27 46 55 52 54 22 17 13 3 360 16 6 356 39 3 133 133 143 147 149 148 144 149 149 145 145 146 143 135 132 128 126 124 124 123 118 116 113
284 320 324 315 286 262 333 321 263 283 11 40 23 12 9 11 22 9 340 324 324 330 356 356 27 13 31 142 158 151 154 160 159 159 161 154 144 151 150 149 146 144 133 125 117 112 105 109 107
18 7 297 305 322 289 147 252 276 333 43 15 350 349 347 350 352 339 340 336 335 342 352 343 5 14 1 3 171 158 162 166 170 168 170 169 155 149 152 155 155 149 138 131 126 121 110 105 109
26 298 269 294 320 19 158 244 294 330 29 353 332 336 332 336 345 342 337 334 344 328 339 330 5 17 355 339 171 153 167 161 171 175 177 178 169 158 153 158 152 150 143 140 138 125 126 123 119
258 252 262 268 300 96 197 249 292 330 22 327 328 334 329 326 316 325 330 337 347 351 352 320 19 1 357 355 71 117 138 154 169 191 189 180 179 168 156 151 152 150 145 142 141 133 115 125 125
240 247 270 271 272 358 234 253 275 304 343 333 333 339 332 317 320 337 344 351 357 6 1 337 65 8 11 0 78 183 206 214 203 212 197 190 191 178 166 159 155 159 162 162 151 136 129 125 127
291 280 284 296 312 264 253 262 268 267 258 323 325 334 332 332 340 343 350 355 353 354 344 335 356 301 263 253 240 232 234 228 220 217 216 202 198 189 176 162 166 168 159 157 155 144 141 143 154
312 256 277 291 324 346 310 299 276 282 272 2 1 351 346 339 332 337 345 346 347 344 328 326 328 318 282 277 262 24 39 19 108 275 256 237 217 200 184 171 168 173 169 174 172 163 158 163 183
292 293 286 291 316 308 331 284 283 278 319 333 334 344 343 338 336 336 341 339 336 329 323 337 326 333 320 267 193 179 202 240 265 243 244 264 234 213 191 175 172 174 177 177 180 171 166 159 170
267 300 290 263 244 308 321 244 288 353 305 305 314 321 332 334 333 334 335 326 321 323 330 338 332 332 325 317 227 210 233 268 289 284 251 257 253 229 203 181 174 176 182 185 180 175 175 173 171
303 325 328 52 90 280 251 198 284 277 269 301 313 317 328 334 341 342 338 337 334 339 350 348 333 324 325 330 284 232 232 253 264 267 245 242 257 238 214 192 184 183 184 187 187 183 184 184 170
23 38 13 359 1 264 222 202 255 291 306 301 306 318 330 341 346 344 343 342 343 343 346 339 338 328 321 314 301 278 246 233 231 240 231 240 258 258 219 204 199 192 193 191 185 181 188 187 178
346 93 137 234 267 298 323 242 256 300 332 342 340 338 344 347 342 337 333 334 336 337 339 337 335 330 327 322 301 302 277 247 250 257 249 236 240 260 235 211 206 203 197 190 185 181 189 189 190
16 52 180 147 281 283 283 299 307 334 349 352 350 354 344 341 340 337 335 336 335 333 330 328 328 328 324 317 316 306 293 277 270 268 259 253 259 265 251 219 209 206 202 191 185 187 190 188 192
53 138 77 102 242 289 302 294 289 313 315 328 337 336 334 337 341 338 334 333 332 326 322 330 334 326 319 315 313 312 301 281 271 270 263 258 266 267 249 237 212 207 205 200 189 185 187 188 192
19 41 68 122 170 192 285 280 260 258 280 301 312 322 325 327 327 327 328 330 326 326 331 339 338 332 330 330 320 316 309 308 293 273 268 259 259 263 243 247 222 209 208 206 197 194 187 190 191
158 178 151 163 261 209 229 273 299 273 294 307 311 317 323 322 323 325 328 332 334 335 338 337 330 330 326 325 320 309 305 300 298 288 280 269 261 259 238 243 241 217 209 206 203 197 193 194 195